Location: *
(42.9237°S, 178.7506°W)
Time: 00:50:31
(UTC+00:00)

Daily predictions for brighter satellites

Satellite Brightness Start Highest point End
(mag) Time Altitude Azimuth Time Altitude Azimuth Time Altitude Azimuth
ATLAS 5 CENTAUR R/B 4.3 06:39:40 10° WSW 06:43:13 18° WNW 06:46:20 10° NNW
USA 276 3.9 06:43:26 10° SW 06:45:05 16° S 06:46:40 10° SE
Cosmos 2369 Rocket 2.5 06:41:29 10° NNW 06:47:06 77° WSW 06:52:46 10° SSE
Meteor 1-31 Rocket 2.9 06:43:43 10° SSE 06:47:20 47° E 06:50:52 10° N
BlueWalker 3 4.0 06:46:23 10° SW 06:49:11 19° S 06:51:59 10° SE
Cosmos 1703 Rocket 4.2 06:47:25 10° NNE 06:51:19 33° E 06:55:17 10° SSE
Cosmos 2263 4.2 06:45:44 10° NNW 06:51:22 86° ENE 06:57:06 10° SSE
CRYOSAT 2 4.4 06:51:08 10° NNE 06:56:01 73° E 07:00:58 10° S
Okean 2 3.3 06:53:27 10° N 06:57:27 88° ENE 07:01:31 10° S
Okean 1-7 2.9 06:56:08 10° N 07:00:20 72° E 07:04:36 10° SSE
Cosmos 1733 Rocket 3.8 06:56:26 10° SSW 07:00:44 56° W 07:04:58 10° N
RESURS DK-1 4.2 07:05:16 12° E 07:05:16 12° E 07:06:11 10° ESE
Cosmos 2266 Rocket 4.2 07:01:53 10° NNE 07:07:53 50° E 07:13:50 10° SSE
ADEOS Rocket 4.3 07:02:51 10° S 07:08:04 41° WSW 07:13:14 10° NW
Cosmos 44 3.8 07:06:45 10° SSW 07:11:57 54° SE 07:16:12 16° NE
CZ-4 R/B 3.3 07:10:42 10° ESE 07:11:46 12° ESE 07:11:46 12° ESE
USA 306 2.3 07:10:08 10° NW 07:13:58 89° NE 07:17:20 10° SE
USA 238 DEB 3.5 07:10:09 10° SW 07:16:53 89° NW 07:22:44 12° NNE
USA 238 3.5 07:10:16 10° SW 07:17:00 90° W 07:22:48 12° NE
SL-24 R/B - RUBIN 2 4.4 07:14:24 10° N 07:18:00 26° ENE 07:21:31 10° ESE
SL-08 ROCKET BODY 4.4 07:12:52 10° N 07:18:39 63° E 07:24:33 10° SSE
Cosmos 1553 Rocket 4.3 07:14:04 10° SSW 07:20:32 74° W 07:26:49 10° N
SJ-6B 3.7 07:18:44 10° SE 07:21:45 23° E 07:22:23 22° ENE
Cosmos 405 Rocket 4.0 07:22:32 10° SSW 07:25:49 37° W 07:29:04 10° NNW
Cosmos 2251 Rocket 3.7 07:21:38 10° SSW 07:27:00 59° ESE 07:30:55 18° NE
SL-24 R/B 4.4 07:22:01 10° S 07:27:13 87° E 07:32:04 10° N
Cosmos 2297 Rocket 3.9 07:26:48 10° S 07:30:44 19° SE 07:33:07 15° ESE
Cosmos 1140 Rocket 3.8 07:25:58 10° SSW 07:31:07 65° WNW 07:36:13 10° N
DELTA 2 DEB (DPAF) 3.9 07:28:44 14° NNE 07:32:16 73° ESE 07:36:29 10° S
USA 59 Rocket 3.9 07:23:49 10° WSW 07:32:18 27° SSW 07:40:41 10° SE
Resurs 01 Rocket 3.2 07:33:07 10° SE 07:35:34 19° ESE 07:35:34 19° ESE
NOAA 6 4.3 07:37:54 10° S 07:43:04 71° WSW 07:48:11 10° NNW
Cosmos 1908 Rocket 4.0 07:38:35 10° SSW 07:43:05 64° W 07:47:31 10° N
YAOGAN 1 2.7 07:38:53 10° S 07:43:16 76° WSW 07:47:34 10° NNW
Meteor 2-20 4.4 07:38:26 10° S 07:44:35 69° E 07:49:29 16° NNE
Cosmos 407 Rocket 3.7 07:43:24 10° SSW 07:48:37 73° WNW 07:52:44 17° N
CZ-2C R/B 4.4 07:47:02 10° S 07:50:15 32° WSW 07:53:23 10° NW
Meteor 2-20 Rocket 4.5 07:45:55 10° S 07:51:42 55° ESE 07:54:47 28° NE
Helios 1B rocket 2.5 07:49:04 10° S 07:52:59 72° WSW 07:56:50 10° NNW
Cosmos 1420 Rocket 4.0 07:52:35 10° NNW 07:57:55 86° ENE 08:03:18 10° SSE
Cosmos 2056 Rocket 3.4 07:53:37 10° N 07:58:55 68° ENE 08:04:12 10° SSE
SPOT 1/Viking Rocket 3.4 07:54:19 10° SSE 07:59:35 71° ENE 08:04:46 10° N
USA 308 4.0 07:58:54 10° WSW 08:02:29 31° NW 08:03:38 26° NNW
Cosmos 1782 Rocket 3.7 07:59:19 10° SSW 08:03:51 75° W 08:06:19 26° N
USA 215 3.5 08:00:29 29° ENE 08:03:54 62° SSE 08:10:26 10° SW
Cosmos 1703 3.5 08:00:15 10° NNW 08:03:55 62° W 08:07:39 10° S
Cosmos 1825 3.6 08:05:45 22° SSE 08:05:45 22° SSE 08:07:11 10° SSE
Okean O Rocket 3.9 08:01:51 10° SE 08:02:15 12° SE 08:02:15 12° SE
Cosmos 489 Rocket 4.3 08:00:23 10° NNW 08:06:36 81° ENE 08:12:53 10° SSE
USA 305 4.5 08:10:19 10° SW 08:11:32 13° SSW 08:11:52 13° S
Cosmos 1892 3.7 08:17:19 31° SSE 08:17:19 31° SSE 08:19:19 10° SSE
Resurs 1-3 4.1 08:13:06 10° S 08:17:28 61° WSW 08:21:46 10° NNW
Cosmos 1300 Rocket 4.0 08:13:20 10° SSW 08:17:45 59° W 08:19:41 31° NNW
ACS3 Solar Sail 2.0 08:11:34 10° SSE 08:17:50 54° E 08:20:00 38° NNE
ISS -0.9 08:19:21 10° NW 08:19:30 11° NW 08:19:30 11° NW
Cosmos 1655 Rocket 4.4 08:18:08 10° NNW 08:24:21 65° W 08:30:38 10° S
Cosmos 1244 Rocket 4.5 08:22:19 40° NNE 08:24:37 64° E 08:30:52 10° SSE
SAR-Lupe-2 3.9 08:22:07 10° S 08:25:44 63° WSW 08:25:59 60° W
CZ-4B R/B 3.2 08:23:10 10° SSE 08:26:17 54° SSE 08:26:17 54° SSE
Cosmos 2315 Rocket 4.4 08:21:00 10° SSW 08:27:14 62° W 08:31:41 19° NNW
BlueWalker 3 2.7 08:24:13 10° SW 08:27:32 43° S 08:27:32 43° S
CZ-4B R/B 3.4 08:25:07 10° SSE 08:29:56 79° WSW 08:32:11 32° NNW
SJ 16-02 3.3 08:30:00 10° SSE 08:32:07 18° SE 08:32:07 18° SE
CSL-04 Debris 4.2 08:29:37 10° SSE 08:34:51 57° E 08:34:51 57° E
CZ-4C R/B 4.1 08:37:09 42° WSW 08:37:09 42° WSW 08:40:06 10° SSW
Feng Yun 1-1 Rocket 4.3 08:35:15 10° SSE 08:40:55 61° E 08:40:55 61° E
RESURS DK-1 3.0 08:40:19 40° WNW 08:41:24 54° WSW 08:45:25 10° SSE
Cosmos 2285 Rocket 4.0 08:40:11 10° SSW 08:46:39 61° ESE 08:47:16 58° E
CZ-4 R/B 2.2 08:43:31 10° S 08:47:14 48° WSW 08:47:14 48° WSW
NOSS 3-1 (C) 4.4 08:41:21 10° SSW 08:47:21 32° SE 08:48:20 30° SE
Cosmos 1656 3.6 08:46:36 29° NNW 08:49:29 78° WSW 08:55:00 10° SSE
Nadezhda 2 Rocket 4.4 08:49:40 51° N 08:51:22 87° W 08:57:35 10° S
Cosmos 1850 Rocket 4.5 08:54:05 10° SSW 08:58:28 51° SSE 08:58:28 51° SSE
SL-08 R/B 4.4 08:58:09 62° N 08:59:21 88° WSW 09:05:47 10° S
CARTOSAT-1 4.4 08:56:39 10° S 09:00:34 49° WSW 09:00:34 49° WSW
CZ-4B R/B 3.2 09:03:44 10° S 09:09:21 75° WSW 09:09:27 75° W
Cosmos 2360 4.5 09:10:48 60° SSE 09:10:48 60° SSE 09:15:27 10° SSE
Cosmos 968 Rocket 4.2 09:04:38 10° SSW 09:08:41 46° SSE 09:08:41 46° SSE
MOS 1-B 4.4 09:04:46 10° SSE 09:09:57 69° SE 09:09:57 69° SE
Cosmos 2227 Rocket 2.8 09:05:47 10° SSW 09:10:29 45° SSE 09:10:29 45° SSE
Resurs 01 Rocket 2.8 09:08:45 10° S 09:12:59 41° WSW 09:13:02 41° WSW
Cosmos 2297 Rocket 2.3 09:09:44 10° SSW 09:14:55 72° SW 09:14:55 72° SW
Cosmos 1697 Rocket 4.1 09:19:11 28° SE 09:19:11 28° SE 09:21:50 10° SSE
ATLAS CENTAUR R/B 3.6 09:07:18 10° SW 09:16:59 71° SE 09:18:27 61° E
Cosmos 1745 Rocket 4.1 09:22:26 69° SSE 09:22:26 69° SSE 09:27:53 10° S
USA 59 Rocket 3.8 09:18:17 10° SW 09:26:15 24° S 09:33:28 10° ESE
CSL-04 Rocket 4.5 09:30:41 10° S 09:35:54 46° WSW 09:36:08 46° WSW
ATLAS 3B R/B 4.0 09:36:20 10° SSW 09:41:23 25° SE 09:41:43 25° SE
Okean O Rocket 3.5 09:37:09 10° S 09:39:34 28° SSW 09:39:34 28° SSW
USA 215 4.0 09:47:49 41° WNW 09:47:49 41° WNW 09:53:17 10° WSW
Cosmos 2263 Rocket 3.5 09:51:28 10° SSW 09:54:54 33° S 09:54:54 33° S
Terra 4.1 09:54:07 10° SSE 09:55:21 18° SSE 09:55:21 18° SSE
ACS3 Solar Sail 3.6 09:56:07 10° S 10:01:22 28° WSW 10:05:10 16° WNW
SJ 16-02 4.0 10:07:35 10° SSW 10:08:49 18° SW 10:08:49 18° SW
SL-12 R/B(2) 4.4 10:17:13 10° SW 10:24:13 55° W 10:24:13 55° W
Cosmos 1980 Rocket 4.0 10:32:05 26° SSE 10:32:05 26° SSE 10:34:29 10° SSE
ATLAS 2AS CENTAUR R/B 3.6 10:35:13 42° SSE 10:35:13 42° SSE 10:39:48 10° SSE
Cosmos 2227 Rocket 4.4 10:50:28 10° SW 10:52:18 18° WSW 10:52:18 18° WSW
USA 59 Rocket 2.7 11:10:04 10° SSW 11:19:28 40° SE 11:21:50 35° ESE
ATLAS 3B R/B 4.2 11:26:27 10° SW 11:28:57 26° SW 11:28:57 26° SW
Cosmos 2333 Rocket 4.4 11:51:34 20° SE 11:51:34 20° SE 11:53:16 10° SSE
Cosmos 2322 Rocket 4.3 11:51:39 21° SSE 11:51:39 21° SSE 11:53:28 10° SSE
